[[{"header":{"parameterUnit":"m.s-1","parameterCategory":1,"la1":30.2991,"la2":30.254,"lo1":-89.0895,"lo2":-89.0444,"dy":0.0017,"dx":0.0017,"nx":28,"ny":28,"refTime":"2025-09-03T03:00:00:Z","depth":0,"parameterNumber":2,"parameterNumberName":"U-component_of_WINDS"},"data":[0,0,0,0,0,0,0,0,0,0,0,0,0,0,0,0,0,0,0,0,0,0,0,0,0,0,0,0,0,0,0,0,0,0,0,0,0,0,0,0,0,0,0,0,0,0,0,0,0,0,0,0,0,0,0,0,0,0,-0.2025,-0.2025,0,-0.201,-0.201,-0.201,-0.1984,-0.1983,-0.1983,-0.1982,-0.1967,-0.1967,-0.1967,0,0,0,0,0,0,0,0,0,0,0,0,0,-0.2033,-0.2033,-0.2025,-0.2025,-0.2025,-0.201,-0.201,-0.201,-0.1984,-0.1983,-0.1983,-0.1982,-0.1967,-0.1967,-0.1967,0,0,0,0,0,0,0,0,0,0,0,0,0,-0.2025,-0.2033,-0.2025,-0.201,-0.2009,-0.201,-0.201,-0.201,-0.1984,-0.1983,-0.1983,-0.1982,-0.1967,-0.1967,-0.1967,-0.1982,0,0,-0.1967,-0.1967,0,0,0,0,0,0,0,0,-0.2025,-0.2024,-0.2013,-0.2011,-0.201,-0.1998,-0.2007,-0.2,-0.1984,-0.1993,-0.1982,-0.1982,-0.1978,-0.1977,-0.1976,-0.1981,-0.1981,-0.1967,-0.1967,-0.1967,-0.1967,0,0,0,0,0,0,0,-0.2026,-0.2025,-0.2019,-0.2013,-0.2011,-0.2004,-0.2003,-0.2006,-0.199,-0.1993,-0.1991,-0.1989,-0.1977,-0.1976,-0.1975,-0.198,-0.1967,-0.1967,-0.1967,-0.1967,-0.1998,-0.1999,0,0,0,0,0,0,-0.2028,-0.2026,-0.202,-0.2019,-0.2016,-0.2005,-0.2003,-0.2003,-0.199,-0.1987,-0.199,-0.1988,-0.1976,-0.1975,-0.1975,-0.1992,-0.1967,-0.1967,-0.1967,-0.1997,-0.1998,-0.1999,0,0,0,0,0,0,-0.2029,-0.2028,-0.202,-0.2022,-0.202,-0.2006,-0.2006,-0.2003,-0.2001,-0.1988,-0.1985,-0.1991,-0.1975,-0.1975,-0.1981,-0.1991,-0.1967,-0.1967,-0.1996,-0.1998,-0.1999,-0.2026,0,0,0,0,0,0,-0.2029,-0.2028,-0.2034,-0.2022,-0.202,-0.2027,-0.2006,-0.2003,-0.2002,-0.1999,-0.1989,-0.1986,-0.1975,-0.1981,-0.1981,-0.199,-0.1968,-0.1995,-0.1997,-0.1998,-0.2024,-0.2028,-0.2031,0,0,0,0,0,-0.2029,-0.2042,-0.2034,-0.2034,-0.2027,-0.2027,-0.2026,-0.2013,-0.2003,-0.2008,-0.1999,-0.1986,-0.199,-0.1981,-0.1981,-0.1991,-0.1995,-0.1997,-0.1998,-0.2022,-0.2027,-0.2031,0,0,0,0,0,0,-0.2055,-0.204,-0.2031,-0.204,-0.2035,-0.2023,-0.2029,-0.2018,-0.2016,-0.2014,-0.1997,-0.1995,-0.2003,-0.1998,-0.1989,-0.2005,-0.199,-0.1992,-0.2009,-0.2013,-0.2016,-0.2017,-0.1968,0,0,0,0,0,-0.2062,-0.2063,-0.205,-0.2059,-0.2057,-0.2044,-0.2043,-0.2034,-0.2028,-0.2025,-0.2017,-0.2012,-0.2012,-0.2012,-0.2011,-0.2023,-0.2021,-0.203,-0.2033,-0.2036,-0.2038,-0.2045,-0.2049,-0.2005,-0.2005,-0.2005,0,0,-0.2076,-0.2068,-0.207,-0.2064,-0.2059,-0.2061,-0.2042,-0.2045,-0.2047,-0.2026,-0.2031,-0.2025,-0.2018,-0.2027,-0.2031,-0.2023,-0.205,-0.2039,-0.2041,-0.2041,-0.2047,-0.2051,-0.2055,-0.2006,-0.2006,-0.2006,0,0,-0.2102,-0.2096,-0.2103,-0.2099,-0.2091,-0.2082,-0.2084,-0.2073,-0.2069,-0.2074,-0.2058,-0.206,-0.206,-0.2056,-0.2054,-0.208,-0.2068,-0.208,-0.2098,-0.2105,-0.2108,-0.2111,-0.2121,-0.2124,-0.2082,-0.2082,-0.2082,0,-0.212,-0.2123,-0.2108,-0.2112,-0.2111,-0.2093,-0.21,-0.2096,-0.2089,-0.2088,-0.208,-0.208,-0.2074,-0.2082,-0.2088,-0.2087,-0.2089,-0.2081,-0.2109,-0.2112,-0.2114,-0.2123,-0.2127,-0.2083,-0.2083,-0.2083,-0.2083,0,-0.2145,-0.2147,-0.2154,-0.2148,-0.2147,-0.2153,-0.214,-0.2141,-0.2131,-0.2124,-0.2129,-0.2122,-0.2119,-0.212,-0.2111,-0.2128,-0.2123,-0.2112,-0.2096,-0.212,-0.2129,-0.2132,-0.2086,-0.2085,-0.2085,-0.2084,0,0,-0.2187,-0.2173,-0.2176,-0.2173,-0.2164,-0.2165,-0.2171,-0.2168,-0.217,-0.2165,-0.217,-0.217,-0.216,-0.2158,-0.2148,-0.2154,-0.2176,-0.2142,-0.2142,-0.2149,-0.2194,-0.2202,-0.2206,-0.2168,-0.2168,-0.2169,-0.2194,0,-0.2211,-0.2219,-0.2207,-0.2218,-0.222,-0.2203,-0.2208,-0.2203,-0.2196,-0.2197,-0.2189,-0.219,-0.2176,-0.2175,-0.218,-0.2172,-0.2184,-0.217,-0.2172,-0.2172,-0.2174,-0.2211,-0.2219,-0.2244,-0.2198,-0.2198,-0.2198,0,-0.224,-0.2238,-0.2249,-0.224,-0.224,-0.2245,-0.2242,-0.2243,-0.2238,-0.2232,-0.223,-0.2219,-0.2224,-0.2209,-0.2216,-0.2206,-0.2206,-0.2203,-0.2203,-0.2203,-0.2187,-0.2211,-0.2251,-0.2255,-0.2203,-0.2203,-0.2203,0,-0.227,-0.2269,-0.2276,-0.2274,-0.2264,-0.2267,-0.2263,-0.2257,-0.2256,-0.2254,-0.2254,-0.2252,-0.2251,-0.2251,-0.2239,-0.2229,-0.2248,-0.2232,-0.2244,-0.2244,-0.2248,-0.2248,-0.2289,-0.2248,-0.2248,-0.2248,-0.2248,0,-0.2298,-0.2306,-0.2289,-0.2293,-0.2302,-0.2288,-0.2296,-0.229,-0.2285,-0.2288,-0.2274,-0.2277,-0.2262,-0.2263,-0.2255,-0.2262,-0.2262,-0.2258,-0.2255,-0.2259,-0.2259,-0.2259,-0.2257,-0.2249,-0.2249,-0.2249,-0.2248,0,-0.2332,-0.2321,-0.2327,-0.2317,-0.2315,-0.2322,-0.2313,-0.2317,-0.2309,-0.2313,-0.2313,-0.2301,-0.2303,-0.2292,-0.2291,-0.2285,-0.2296,-0.2291,-0.2298,-0.2297,-0.2309,-0.2308,-0.2351,-0.2356,-0.2312,-0.2313,-0.2313,0,-0.2351,-0.2356,-0.2347,-0.2348,-0.2344,-0.2346,-0.2346,-0.2333,-0.2333,-0.2328,-0.2332,-0.2333,-0.2332,-0.2335,-0.2327,-0.2326,-0.2321,-0.2336,-0.232,-0.2324,-0.2321,-0.2321,-0.2322,-0.2339,-0.2339,-0.234,-0.234,0,-0.2385,-0.238,-0.238,-0.2379,-0.2379,-0.2377,-0.2374,-0.2376,-0.2362,-0.2363,-0.2364,-0.2364,-0.2364,-0.2364,-0.2362,-0.2358,-0.2347,-0.2345,-0.2348,-0.2352,-0.2356,-0.2354,-0.2307,-0.2344,-0.2344,-0.2343,-0.2343,-0.2343,-0.2412,-0.2416,-0.2411,-0.2412,-0.2408,-0.2406,-0.2409,-0.2403,-0.2403,-0.2402,-0.2394,-0.2397,-0.2392,-0.2389,-0.2386,-0.2388,-0.2381,-0.2385,-0.2386,-0.2387,-0.2389,-0.2356,-0.2388,-0.2388,-0.2387,-0.2387,-0.2387,0,-0.2446,-0.2442,-0.2443,-0.244,-0.244,-0.243,-0.2427,-0.2428,-0.2431,-0.2427,-0.2427,-0.2429,-0.243,-0.2422,-0.2422,-0.2425,-0.242,-0.2426,-0.2425,-0.2425,-0.2396,-0.2393,-0.243,-0.243,-0.243,-0.243,-0.243,-0.243,-0.2464,-0.2471,-0.2465,-0.247,-0.2466,-0.2469,-0.2468,-0.2466,-0.2463,-0.2466,-0.2467,-0.2462,-0.2456,-0.2456,-0.2456,-0.2454,-0.2455,-0.2462,-0.2458,-0.2431,-0.2427,-0.2423,-0.2421,-0.2462,-0.2462,-0.2487,-0.2487,-0.2487]},{"header":{"parameterUnit":"m.s-1","parameterCategory":1,"la1":30.2991,"la2":30.254,"lo1":-89.0895,"lo2":-89.0444,"dy":0.0017,"dx":0.0017,"nx":28,"ny":28,"refTime":"2025-09-03T03:00:00:Z","depth":0,"parameterNumber":3,"parameterNumberName":"V-component_of_WINDS"},"data":[0,0,0,0,0,0,0,0,0,0,0,0,0,0,0,0,0,0,0,0,0,0,0,0,0,0,0,0,0,0,0,0,0,0,0,0,0,0,0,0,0,0,0,0,0,0,0,0,0,0,0,0,0,0,0,0,0,0,1.3812,1.3812,0,1.379,1.3789,1.3789,1.3828,1.383,1.3831,1.3832,1.3807,1.3805,1.3803,0,0,0,0,0,0,0,0,0,0,0,0,0,1.3885,1.3884,1.3812,1.3812,1.3811,1.379,1.3789,1.3789,1.3828,1.383,1.3831,1.3833,1.3807,1.3805,1.3803,0,0,0,0,0,0,0,0,0,0,0,0,0,1.3857,1.3883,1.3812,1.3828,1.383,1.379,1.3789,1.3789,1.3828,1.383,1.3832,1.3834,1.3808,1.3805,1.3803,1.3745,0,0,1.3794,1.3793,0,0,0,0,0,0,0,0,1.3859,1.3854,1.3826,1.3827,1.3829,1.3814,1.3806,1.3774,1.3827,1.3828,1.3832,1.3835,1.3807,1.3805,1.3796,1.3744,1.3743,1.3794,1.3792,1.3791,1.379,0,0,0,0,0,0,0,1.386,1.3855,1.3803,1.3826,1.3827,1.3836,1.3834,1.38,1.3807,1.3828,1.3831,1.3828,1.3808,1.3799,1.3796,1.3742,1.3794,1.3791,1.3789,1.3788,1.3638,1.3636,0,0,0,0,0,0,1.3861,1.3857,1.3804,1.3802,1.3849,1.3833,1.3831,1.3816,1.3807,1.3808,1.3827,1.383,1.3803,1.3799,1.3795,1.3724,1.3791,1.3788,1.3786,1.364,1.3637,1.3635,0,0,0,0,0,0,1.3862,1.3856,1.3805,1.383,1.3825,1.3829,1.3813,1.3815,1.3805,1.3806,1.3807,1.3816,1.3804,1.3799,1.3756,1.3724,1.3787,1.3784,1.3643,1.3639,1.3636,1.3583,0,0,0,0,0,0,1.3864,1.3856,1.3835,1.383,1.3823,1.3767,1.3811,1.3813,1.3801,1.3805,1.3796,1.3796,1.3805,1.376,1.3754,1.3721,1.3782,1.3646,1.3641,1.3637,1.3588,1.3578,1.357,0,0,0,0,0,1.3867,1.3821,1.3834,1.3827,1.3797,1.3765,1.3762,1.3773,1.3798,1.3776,1.3776,1.3797,1.3729,1.3756,1.3748,1.3714,1.3648,1.3642,1.3638,1.3592,1.358,1.357,0,0,0,0,0,0,1.3822,1.3821,1.3835,1.3786,1.3776,1.3772,1.3745,1.3761,1.3743,1.3748,1.3763,1.376,1.3714,1.371,1.374,1.3656,1.3692,1.3685,1.366,1.3649,1.364,1.3641,1.3779,0,0,0,0,0,1.3807,1.3782,1.3782,1.3739,1.3733,1.374,1.3727,1.3737,1.3726,1.3721,1.3719,1.3706,1.3682,1.3666,1.3644,1.3588,1.3585,1.3561,1.3552,1.3545,1.3538,1.3505,1.3493,1.3618,1.3618,1.3618,0,0,1.3775,1.3771,1.3754,1.373,1.3723,1.3696,1.3736,1.3706,1.3685,1.3717,1.3675,1.3673,1.366,1.361,1.3588,1.3606,1.3503,1.3539,1.3533,1.353,1.3499,1.3487,1.3476,1.3615,1.3615,1.3616,0,0,1.3701,1.3697,1.366,1.3652,1.364,1.3645,1.3636,1.3629,1.3629,1.3588,1.361,1.3586,1.3545,1.3534,1.3523,1.3444,1.3461,1.3436,1.3389,1.3357,1.3347,1.3339,1.3307,1.3296,1.343,1.343,1.343,0,1.3662,1.3623,1.3638,1.3606,1.3593,1.3621,1.3582,1.3573,1.3555,1.3545,1.3566,1.3513,1.3507,1.3453,1.3433,1.3425,1.3413,1.3436,1.3348,1.3339,1.3331,1.3301,1.329,1.3427,1.3427,1.3427,1.3428,0,1.3573,1.3546,1.3517,1.3498,1.3483,1.3447,1.3455,1.3438,1.3449,1.3451,1.3407,1.3401,1.3377,1.3365,1.3376,1.3312,1.3323,1.3346,1.3381,1.3316,1.3288,1.3277,1.3422,1.3423,1.3424,1.3425,0,0,1.347,1.346,1.3449,1.344,1.3429,1.3407,1.3372,1.3349,1.3332,1.3319,1.3287,1.3251,1.3272,1.3259,1.3269,1.3241,1.3175,1.3267,1.3267,1.3247,1.31,1.308,1.3067,1.3187,1.3185,1.3184,1.3099,0,1.3395,1.3334,1.3347,1.3287,1.326,1.3286,1.3255,1.3244,1.3244,1.322,1.3221,1.3193,1.3224,1.3216,1.319,1.3188,1.3145,1.3195,1.3156,1.3154,1.3155,1.3053,1.3033,1.2954,1.3089,1.3087,1.3086,0,1.3298,1.3281,1.3218,1.3209,1.3199,1.3171,1.3149,1.3127,1.3114,1.3116,1.3101,1.3116,1.3079,1.3117,1.3065,1.3099,1.3084,1.308,1.3078,1.3072,1.3114,1.3041,1.293,1.2916,1.307,1.3071,1.3072,0,1.3225,1.3186,1.3143,1.3135,1.3125,1.3104,1.3098,1.3088,1.3072,1.3053,1.3043,1.302,1.3006,1.2987,1.2995,1.3022,1.2939,1.2979,1.2938,1.2937,1.2917,1.2917,1.2798,1.2912,1.2913,1.2913,1.2913,0,1.3138,1.3097,1.3109,1.3082,1.3037,1.3052,1.3006,1.3004,1.2994,1.2966,1.2988,1.296,1.2973,1.2946,1.2952,1.2906,1.29,1.2899,1.2901,1.2895,1.2895,1.2883,1.2888,1.291,1.291,1.2911,1.2911,0,1.3047,1.3054,1.3008,1.3002,1.2999,1.2966,1.296,1.2934,1.2937,1.29,1.2892,1.2895,1.2864,1.2871,1.2837,1.2841,1.2782,1.2792,1.2786,1.2787,1.2744,1.2746,1.261,1.2591,1.2721,1.2719,1.2718,0,1.2989,1.2959,1.2949,1.2932,1.2925,1.2897,1.2881,1.2894,1.2876,1.2858,1.2834,1.2805,1.2782,1.2732,1.273,1.2703,1.2711,1.2665,1.2707,1.2702,1.2706,1.2706,1.2702,1.2655,1.2654,1.2653,1.2652,0,1.2885,1.2889,1.2866,1.2843,1.2823,1.2806,1.279,1.2774,1.2785,1.2764,1.2733,1.2715,1.268,1.265,1.2626,1.2619,1.2635,1.2639,1.2627,1.262,1.2616,1.2614,1.2759,1.2641,1.2642,1.2643,1.2644,1.2644,1.2807,1.278,1.2768,1.2741,1.273,1.2715,1.2689,1.2688,1.2662,1.2635,1.2644,1.2608,1.2594,1.2562,1.2552,1.2523,1.254,1.2524,1.2519,1.2514,1.2507,1.2624,1.2519,1.2519,1.252,1.252,1.252,0,1.27,1.2694,1.2669,1.2646,1.2624,1.2643,1.2627,1.2606,1.2574,1.256,1.2537,1.25,1.2471,1.2467,1.2438,1.2415,1.2422,1.2407,1.2407,1.2405,1.2496,1.2507,1.2402,1.2402,1.2402,1.2402,1.2402,1.2402,1.2642,1.2597,1.26,1.2548,1.2542,1.2507,1.2495,1.248,1.2469,1.2426,1.2402,1.24,1.2389,1.236,1.2333,1.2333,1.232,1.2301,1.2303,1.2387,1.2399,1.241,1.242,1.2299,1.2299,1.2214,1.2213,1.2213]}]]